When you browse on this site, cookies collect data to enhance your experience and personalize the content and advertising you see.
Visit our Privacy Policy to learn more. By continuing to use the site, you agree to this use of cookies and data.
  • In Österreich
  • Länderverzeichnis
  • Für 7 Tage
  • Wassertemperatur
  • Wetterkarte
  • News
  • Widgets
  • user-avatar
    Anmelden

    Stündliche Wetter Cardonal

    Heute, 21 Oktober, Montag

    Zeit Temperatur Niederschläge Wind Luftdruck Luftfeuchtigkeit
    00:00 +18°C° 0 mm 1 m/S 597 mmHg 80%
    01:00 +16°C° 0 mm 1 m/S 597 mmHg 79%
    02:00 +16°C° 0 mm 1 m/S 597 mmHg 78%
    03:00 +16°C° 0 mm 1 m/S 597 mmHg 79%
    04:00 +15°C° 0 mm 1 m/S 596 mmHg 80%
    05:00 +15°C° 0 mm 2 m/S 596 mmHg 81%
    06:00 +17°C° 0 mm 2 m/S 597 mmHg 76%
    07:00 +19°C° 0 mm 1 m/S 598 mmHg 71%
    08:00 +21°C° 0 mm 1 m/S 600 mmHg 65%
    09:00 +23°C° 0 mm 1 m/S 600 mmHg 59%
    10:00 +24°C° 0 mm 1 m/S 600 mmHg 54%
    11:00 +26°C° 0 mm 1 m/S 601 mmHg 48%
    12:00 +26°C° 0.4 mm 1 m/S 600 mmHg 49%
    13:00 +25°C° 0.4 mm 2 m/S 599 mmHg 51%
    14:00 +25°C° 0.4 mm 2 m/S 599 mmHg 53%
    15:00 +24°C° 0.8 mm 2 m/S 598 mmHg 61%
    16:00 +21°C° 0.8 mm 2 m/S 598 mmHg 68%
    17:00 +20°C° 0.8 mm 2 m/S 598 mmHg 76%
    18:00 +20°C° 0.4 mm 1 m/S 598 mmHg 79%
    19:00 +19°C° 0.4 mm 1 m/S 599 mmHg 82%
    20:00 +18°C° 0.4 mm 1 m/S 599 mmHg 85%
    21:00 +18°C° 0.6 mm 1 m/S 599 mmHg 87%
    22:00 +16°C° 0.6 mm 1 m/S 599 mmHg 89%
    23:00 +16°C° 0.6 mm 1 m/S 599 mmHg 90%

    Morgen, 22 Oktober, Dienstag

    Zeit Temperatur Niederschläge Wind Luftdruck Luftfeuchtigkeit
    00:00 +16°C° 0.8 mm 1 m/S 599 mmHg 92%
    01:00 +15°C° 0.8 mm 1 m/S 599 mmHg 94%
    02:00 +15°C° 0.8 mm 2 m/S 599 mmHg 95%
    03:00 +15°C° 0.5 mm 1 m/S 599 mmHg 95%
    04:00 +15°C° 0.5 mm 1 m/S 599 mmHg 95%
    05:00 +15°C° 0.5 mm 1 m/S 599 mmHg 95%
    06:00 +16°C° 0 mm 1 m/S 600 mmHg 91%
    07:00 +16°C° 0 mm 1 m/S 600 mmHg 86%
    08:00 +18°C° 0 mm 1 m/S 601 mmHg 82%
    09:00 +18°C° 0.1 mm 2 m/S 601 mmHg 80%
    10:00 +18°C° 0.1 mm 2 m/S 601 mmHg 78%
    11:00 +19°C° 0.1 mm 3 m/S 601 mmHg 76%
    12:00 +19°C° 0.2 mm 3 m/S 600 mmHg 76%
    13:00 +19°C° 0.2 mm 3 m/S 600 mmHg 76%
    14:00 +19°C° 0.2 mm 4 m/S 600 mmHg 76%
    15:00 +18°C° 0.2 mm 3 m/S 600 mmHg 81%
    16:00 +17°C° 0.2 mm 3 m/S 599 mmHg 85%
    17:00 +16°C° 0.2 mm 3 m/S 599 mmHg 90%
    18:00 +15°C° 0.1 mm 2 m/S 600 mmHg 91%
    19:00 +15°C° 0.1 mm 2 m/S 600 mmHg 92%
    20:00 +15°C° 0.1 mm 1 m/S 600 mmHg 93%
    21:00 +15°C° 0.3 mm 1 m/S 600 mmHg 93%
    22:00 +15°C° 0.3 mm 1 m/S 600 mmHg 94%
    23:00 +14°C° 0.3 mm 1 m/S 600 mmHg 95%

    übermorgen, 23 Oktober, Mittwoch

    Zeit Temperatur Niederschläge Wind Luftdruck Luftfeuchtigkeit
    00:00 +14°C° 0.5 mm 1 m/S 600 mmHg 95%
    01:00 +14°C° 0.5 mm 1 m/S 600 mmHg 95%
    02:00 +14°C° 0.5 mm 1 m/S 599 mmHg 95%
    03:00 +14°C° 0.2 mm 1 m/S 599 mmHg 95%
    04:00 +14°C° 0.2 mm 1 m/S 599 mmHg 95%
    05:00 +14°C° 0.2 mm 1 m/S 599 mmHg 95%
    06:00 +14°C° 0.1 mm 1 m/S 599 mmHg 92%
    07:00 +15°C° 0.1 mm 1 m/S 600 mmHg 90%
    08:00 +15°C° 0.1 mm 1 m/S 600 mmHg 87%
    09:00 +16°C° 0.1 mm 1 m/S 600 mmHg 82%
    10:00 +18°C° 0.1 mm 2 m/S 600 mmHg 76%
    11:00 +19°C° 0.1 mm 2 m/S 600 mmHg 71%
    12:00 +19°C° 0.1 mm 2 m/S 600 mmHg 70%
    13:00 +19°C° 0.1 mm 3 m/S 599 mmHg 70%
    14:00 +19°C° 0.1 mm 3 m/S 598 mmHg 70%
    15:00 +18°C° 0.1 mm 3 m/S 598 mmHg 75%
    16:00 +17°C° 0.1 mm 3 m/S 598 mmHg 81%
    17:00 +16°C° 0.1 mm 2 m/S 597 mmHg 86%
    18:00 +16°C° 0 mm 2 m/S 598 mmHg 90%
    19:00 +15°C° 0 mm 2 m/S 598 mmHg 93%
    20:00 +14°C° 0 mm 1 m/S 598 mmHg 96%
    21:00 +14°C° 0 mm 1 m/S 598 mmHg 95%
    22:00 +14°C° 0 mm 1 m/S 598 mmHg 94%
    23:00 +13°C° 0 mm 0 m/S 598 mmHg 93%

    24 Oktober, Donnerstag

    Zeit Temperatur Niederschläge Wind Luftdruck Luftfeuchtigkeit
    00:00 +12°C° 0 mm 0 m/S 597 mmHg 92%
    01:00 +12°C° 0 mm 0 m/S 597 mmHg 91%
    02:00 +12°C° 0 mm 0 m/S 597 mmHg 90%
    03:00 +12°C° 0 mm 0 m/S 597 mmHg 90%
    04:00 +12°C° 0 mm 0 m/S 597 mmHg 90%
    05:00 +12°C° 0 mm 1 m/S 597 mmHg 90%
    06:00 +13°C° 0 mm 0 m/S 597 mmHg 85%
    07:00 +14°C° 0 mm 0 m/S 598 mmHg 80%
    08:00 +16°C° 0 mm 0 m/S 599 mmHg 74%
    09:00 +19°C° 0 mm 1 m/S 599 mmHg 68%
    10:00 +21°C° 0 mm 1 m/S 599 mmHg 62%
    11:00 +22°C° 0 mm 1 m/S 599 mmHg 56%
    12:00 +21°C° 0 mm 2 m/S 599 mmHg 56%
    13:00 +22°C° 0 mm 3 m/S 598 mmHg 56%
    14:00 +22°C° 0 mm 4 m/S 598 mmHg 56%
    15:00 +20°C° 0.2 mm 3 m/S 597 mmHg 65%
    16:00 +19°C° 0.2 mm 3 m/S 597 mmHg 75%
    17:00 +17°C° 0.2 mm 2 m/S 597 mmHg 84%
    18:00 +17°C° 0.1 mm 2 m/S 597 mmHg 88%
    19:00 +16°C° 0.1 mm 1 m/S 597 mmHg 92%
    20:00 +15°C° 0.1 mm 1 m/S 597 mmHg 96%
    21:00 +15°C° 0 mm 1 m/S 598 mmHg 95%
    22:00 +15°C° 0 mm 1 m/S 598 mmHg 94%
    23:00 +15°C° 0 mm 1 m/S 598 mmHg 93%

    25 Oktober, Freitag

    Zeit Temperatur Niederschläge Wind Luftdruck Luftfeuchtigkeit
    00:00 +15°C° 0 mm 1 m/S 598 mmHg 92%
    01:00 +14°C° 0 mm 1 m/S 597 mmHg 92%
    02:00 +14°C° 0 mm 1 m/S 597 mmHg 91%
    03:00 +14°C° 0.1 mm 1 m/S 597 mmHg 92%
    04:00 +14°C° 0.1 mm 1 m/S 598 mmHg 92%
    05:00 +14°C° 0.1 mm 1 m/S 598 mmHg 92%
    06:00 +14°C° 0.7 mm 1 m/S 598 mmHg 93%
    07:00 +14°C° 0.7 mm 1 m/S 599 mmHg 93%
    08:00 +14°C° 0.7 mm 1 m/S 599 mmHg 93%
    09:00 +14°C° 0.8 mm 2 m/S 599 mmHg 93%
    10:00 +14°C° 0.8 mm 2 m/S 599 mmHg 93%
    11:00 +13°C° 0.8 mm 3 m/S 599 mmHg 93%
    12:00 +12°C° 0.4 mm 3 m/S 598 mmHg 93%
    13:00 +12°C° 0.4 mm 3 m/S 598 mmHg 92%
    14:00 +11°C° 0.4 mm 3 m/S 597 mmHg 92%
    15:00 +11°C° 0.3 mm 3 m/S 598 mmHg 93%
    16:00 +11°C° 0.3 mm 3 m/S 598 mmHg 94%
    17:00 +10°C° 0.3 mm 2 m/S 598 mmHg 94%
    18:00 +10°C° 0.2 mm 2 m/S 599 mmHg 95%
    19:00 +10°C° 0.2 mm 2 m/S 599 mmHg 95%
    20:00 +10°C° 0.2 mm 2 m/S 600 mmHg 95%
    21:00 +10°C° 0.2 mm 2 m/S 600 mmHg 95%
    22:00 +10°C° 0.2 mm 2 m/S 600 mmHg 94%
    23:00 +10°C° 0.2 mm 2 m/S 600 mmHg 94%

    26 Oktober, Samstag

    Zeit Temperatur Niederschläge Wind Luftdruck Luftfeuchtigkeit
    00:00 +10°C° 0.1 mm 2 m/S 600 mmHg 94%
    01:00 +11°C° 0.1 mm 1 m/S 599 mmHg 94%
    02:00 +11°C° 0.1 mm 1 m/S 599 mmHg 94%
    03:00 +10°C° 0 mm 1 m/S 599 mmHg 94%
    04:00 +10°C° 0 mm 1 m/S 599 mmHg 94%
    05:00 +8°C° 0 mm 2 m/S 598 mmHg 94%
    06:00 +9°C° 0 mm 2 m/S 599 mmHg 92%
    07:00 +9°C° 0 mm 2 m/S 599 mmHg 90%
    08:00 +9°C° 0 mm 2 m/S 599 mmHg 87%
    09:00 +10°C° 0 mm 2 m/S 599 mmHg 83%
    10:00 +12°C° 0 mm 2 m/S 599 mmHg 78%
    11:00 +13°C° 0 mm 2 m/S 599 mmHg 74%
    12:00 +14°C° 0 mm 2 m/S 599 mmHg 71%
    13:00 +15°C° 0 mm 2 m/S 598 mmHg 69%
    14:00 +15°C° 0 mm 2 m/S 598 mmHg 66%
    15:00 +14°C° 0 mm 2 m/S 598 mmHg 70%
    16:00 +13°C° 0 mm 2 m/S 598 mmHg 74%
    17:00 +12°C° 0 mm 2 m/S 598 mmHg 77%
    18:00 +12°C° 0 mm 1 m/S 598 mmHg 80%
    19:00 +11°C° 0 mm 1 m/S 598 mmHg 83%
    20:00 +9°C° 0 mm 0 m/S 598 mmHg 85%
    21:00 +9°C° 0 mm 0 m/S 598 mmHg 85%
    22:00 +11°C° 0 mm 1 m/S 598 mmHg 84%
    23:00 +11°C° 0 mm 1 m/S 598 mmHg 84%

    27 Oktober, Sonntag

    Zeit Temperatur Niederschläge Wind Luftdruck Luftfeuchtigkeit
    00:00 +11°C° 0 mm 1 m/S 597 mmHg 85%
    01:00 +10°C° 0 mm 0 m/S 597 mmHg 87%
    02:00 +10°C° 0 mm 0 m/S 597 mmHg 89%
    03:00 +10°C° 0 mm 0 m/S 596 mmHg 89%
    04:00 +9°C° 0 mm 0 m/S 596 mmHg 90%
    05:00 +10°C° 0 mm 1 m/S 596 mmHg 91%
    06:00 +11°C° 0 mm 0 m/S 597 mmHg 84%
    07:00 +13°C° 0 mm 0 m/S 599 mmHg 77%
    08:00 +15°C° 0 mm 0 m/S 600 mmHg 70%
    09:00 +19°C° 0 mm 1 m/S 600 mmHg 65%
    10:00 +21°C° 0 mm 1 m/S 601 mmHg 59%
    11:00 +22°C° 0 mm 1 m/S 601 mmHg 54%
    12:00 +21°C° 0 mm 2 m/S 600 mmHg 54%
    13:00 +21°C° 0 mm 3 m/S 600 mmHg 55%
    14:00 +21°C° 0 mm 4 m/S 599 mmHg 55%
    15:00 +20°C° 0 mm 3 m/S 599 mmHg 63%
    16:00 +18°C° 0 mm 2 m/S 599 mmHg 71%
    17:00 +16°C° 0 mm 2 m/S 598 mmHg 79%
    18:00 +15°C° 0 mm 1 m/S 598 mmHg 82%
    19:00 +15°C° 0 mm 1 m/S 598 mmHg 85%
    20:00 +13°C° 0 mm 0 m/S 599 mmHg 88%
    21:00 +13°C° 0 mm 0 m/S 598 mmHg 87%
    22:00 +12°C° 0 mm 0 m/S 598 mmHg 86%
    23:00 +12°C° 0 mm 0 m/S 598 mmHg 85%
    Mehr zeigen